Location: Newark
(41.6500°N, 71.4833°W)
Time: 19:20:01
(UTC+00:00)

Tiros 1 - Pass Details

Date: 22 January 2020
Orbit: 631 x 664 km, 48.4° (Epoch: 23 February)

Event Time Altitude Azimuth Distance (km) Brightness Sun altitude
Rises 23:01:08 0° 297° (WNW) 2,977 11.4 -13.6°
Reaches altitude 10° 23:03:30 10° 301° (WNW) 2,069 10.4 -14.0°
Maximum altitude 23:08:14 58° 21° (NNE) 767 7.3 -14.8°
Enters shadow 23:10:56 24° 93° (E) 1,348 8.2 -15.3°
